Hors Challenge

Le Jogging Nocturne De La Houssiere - Braine-Le-Comte (4.30 km)

vendredi 01 novembre 2019

Vous pouvez trouver Le classement original sur : www.otopservices.be  
 
LE JOGGING NOCTURNE DE LA HOUSSIERE - BRAINE-LE-COMTE
DISTANCE : 4.27 km
vendredi 01 novembre 2019
 
Place dos NOM Catégorie Pl/cat temps temps/km Vitesse
01:00:00              
1 3555 HERVE RICOUR VETERAN 1 1 00:18:51 04:25 13.60
2 3536 NATHAN MARCELIS JUNIOR H 1 00:21:19 04:59 12.03
3 3556 ROMAIN RICOUR JUNIOR H 2 00:22:31 05:16 11.39
4 3537 THIBAULT MARCELIS JUNIOR H 3 00:22:44 05:19 11.28
5 3512 THOMAS BERTEAU ESPOIR H 1 00:25:59 06:05 9.87
6 3586 JORDAN MOT ESPOIR H 2 00:26:06 06:07 9.82
7 3581 CAMILLE DAUCHOT SENIOR D 1 00:26:12 06:08 9.78
8 3569 JULIEN MERCIER SENIOR H 1 00:26:15 06:09 9.77
9 3518 FATIMA DAIDOU AINÉE 2 1 00:26:29 06:12 9.68
10 3513 NAJIM BOARBI SENIOR H 2 00:26:32 06:13 9.66
11 3576 JEROME DEKEYZER SENIOR H 3 00:26:33 06:13 9.66
12 3545 SEBASTIEN SAUCEZ SENIOR H 4 00:26:35 06:13 9.64
13 3520 GARY DE BEYS SENIOR H 5 00:26:38 06:14 9.63
14 3562 JOSEPHINE DASSONVILLE SENIOR D 2 00:26:39 06:14 9.62
15 3572 DENIS HUYSMAN VETERAN 1 2 00:26:55 06:18 9.52
16 3527 CLEMENTINE FAUSONNIER SENIOR D 3 00:27:33 06:27 9.31
17 3560 ELODIE DURAY SENIOR D 4 00:27:59 06:33 9.16
18 3561 KEVIN DURAY SENIOR H 6 00:28:07 06:35 9.12
19 3548 VALERIE VERMYLEN AINÉE 1 1 00:28:10 06:36 9.10
20 3531 CÉLINE LAURENT SENIOR D 5 00:28:24 06:39 9.03
21 3538 VINCENT MEURANT SENIOR H 7 00:29:04 06:48 8.82
22 3511 ANAÏS BALIEU SENIOR D 6 00:29:15 06:51 8.76
23 3577 INES MANSOURI SENIOR D 7 00:29:17 06:51 8.75
24 3532 YSALINE LECOCQ SENIOR D 8 00:29:17 06:51 8.75
25 3528 CAROLINE KINKIN SENIOR D 9 00:29:17 06:51 8.75
26 3559 NILS VANWIJCK JUNIOR H 4 00:29:22 06:52 8.73
27 3549 LAURA VINCENT SENIOR D 10 00:29:22 06:52 8.73
28 3558 XAVIER VANKIJCK VETERAN 1 3 00:29:22 06:52 8.73
29 3580 MELANIE WIELEMANS AINÉE 1 2 00:29:33 06:55 8.68
30 3524 JUSTINE DEMARBE SENIOR D 11 00:29:35 06:55 8.67
31 3542 ADELINE PAKUSZEWSKI SENIOR D 12 00:29:39 06:56 8.65
32 3553 SEVERINE DUBRAY AINÉE 2 2 00:30:37 07:10 8.37
33 3521 ANNE DECAMPS AINÉE 1 3 00:30:38 07:10 8.37
34 3583 SOPHIE TOURNANT AINÉE 2 3 00:31:13 07:18 8.21
35 3582 DAVID TOURNANT VÉTÉRAN 2 1 00:31:13 07:18 8.21
36 3516 NICOLAS CANELLO SENIOR H 8 00:32:06 07:31 7.99
37 3571 NICOLAS LAHAUT VETERAN 1 4 00:33:24 07:49 7.68
38 3570 CINDY MINET SENIOR D 13 00:33:32 07:51 7.64
39 3579 AYLIN HAULAIT JUNIOR D 1 00:33:38 07:52 7.62
40 3578 ANNE-LISE HAULAIT SENIOR D 14 00:33:39 07:53 7.62
41 3544 MARIA SALAMONE AINÉE 1 4 00:33:42 07:53 7.61
42 3541 SYLVIE PAEPEN AINÉE 1 5 00:33:45 07:54 7.60
43 3568 SYLVIE FOSSOUL SENIOR D 15 00:34:15 08:01 7.48
44 3519 NATHALIE DASCOTTE AINÉE 1 6 00:35:19 08:16 7.26
45 3573 DELPHINE DELESTIENNE AINÉE 1 7 00:35:20 08:16 7.26
46 3543 LAETITIA PEREMANS SENIOR D 16 00:35:27 08:18 7.23
47 3535 ROSALINE MAIORANO SENIOR D 17 00:35:27 08:18 7.23
48 3534 ORNELLA MAIORANO SENIOR D 18 00:35:27 08:18 7.23
49 3517 MELANIE COPPIN SENIOR D 19 00:35:28 08:18 7.23
50 3515 ISABELLE BROCORENS AINÉE 1 8 00:35:29 08:18 7.22
51 3585 HELENE GEERTS SENIOR D 20 00:35:35 08:20 7.20
52 3584 VIRGINIE FRANCOIS SENIOR D 21 00:35:35 08:20 7.20
53 3565 JEREMY VAN SENIOR H 9 00:36:10 08:28 7.09
54 3526 MAXIME DUVIVIER SENIOR H 10 00:36:15 08:29 7.07
55 3546 JESSICA SOETENS SENIOR D 22 00:36:15 08:29 7.07
56 3540 NADEGE OSTYN SENIOR D 23 00:36:18 08:30 7.06
57 3554 DIMITRI DENDAL VETERAN 1 5 00:36:23 08:31 7.05
58 3567 MIRA SIPURA AINÉE 1 9 00:36:24 08:31 7.04
59 3557 VINCENT DENDAL VETERAN 1 6 00:36:31 08:33 7.02
60 3566 NATHALIE CHEVALIER AINÉE 1 10 00:36:31 08:33 7.02
61 3552 NATHALIE MARTIN AINÉE 1 11 00:36:36 08:34 7.00
62 3563 JOELLE ANTOINE AINÉE 2 4 00:36:38 08:34 7.00
63 3551 CLAIRE VISOCKIS AINÉE 2 5 00:38:26 09:00 6.67
64 3550 BEATRICE VISOCKIS SENIOR D 24 00:38:26 09:00 6.67
65 3547 SOPHIE VAN SENIOR D 25 00:38:42 09:03 6.62
66 3564 JULIE DUTHY SENIOR D 26 00:38:42 09:03 6.62
67 3574 LAURENCE TURINE AINÉE 1 12 00:39:43 09:18 6.45
68 3575 NICOLAS JOACHIM VETERAN 1 7 00:39:44 09:18 6.45